User: anonymous   Login
Location: Pulvis Stellarum Observatory
(41.6962°N, 71.4263°W)
Time: 00:24:06
(UTC-05:00)
Language:

Cosmos 1758 - Orbit

View from above orbital plane
View from above orbital plane
View from above satellite
View from above satellite

Ground track
Ground track

The orbit data is extracted from the following two-line orbital elements,

1 16791U 86046A   17056.32381382  .00000635  00000-0  43370-4 0  9992
2 16791  82.4724 141.0645 0018178 108.8529 251.4671 15.04321083668869
Epoch (UTC): 25 February 2017 07:46:17
Eccentricity: 0.0018178
inclination: 82.4724°
perigee height: 541 km
apogee height: 566 km
right ascension of ascending node: 141.0645°
argument of perigee: 108.8529°
revolutions per day: 15.04321083
mean anomaly at epoch: 251.4671°
orbit number at epoch: 66886

The dashed part of the orbit path shows where the satellite is in the earth's shadow,  

DLR